AAL1767 KPHX-KSAT

Flight info

Callsign AAL1767
Flight time N/A
Altitude 35000
Route ECLPS1 PHASE ELP FST MOPPP DNKIN2
Aircraft A320/M-SDE3FGHIRWY/LB1

Departure

Time N/A
Airport Phoenix Sky Harbor International Airport (KPHX)

Arrival

Time 2026-04-26 02:30
Airport San Antonio International Airport (KSAT)
Time Latitude Longitude Altitude Speed Heading
2026-04-26 02:02 30.64987 -101.78338 34716 ft 538 kts 109°
2026-04-26 02:02 30.63913 -101.74176 34722 ft 537 kts 109°
2026-04-26 02:03 30.61779 -101.65924 34727 ft 536 kts 108°
2026-04-26 02:03 30.59632 -101.57652 34738 ft 535 kts 109°
2026-04-26 02:04 30.57472 -101.49394 34766 ft 534 kts 109°
2026-04-26 02:04 30.55304 -101.41156 34778 ft 533 kts 109°
2026-04-26 02:05 30.53143 -101.32944 34792 ft 532 kts 109°
2026-04-26 02:05 30.50975 -101.24734 34788 ft 532 kts 108°
2026-04-26 02:06 30.48819 -101.16528 34784 ft 532 kts 108°
2026-04-26 02:06 30.46655 -101.08320 34764 ft 532 kts 108°
2026-04-26 02:07 30.44479 -101.00118 34742 ft 532 kts 108°
2026-04-26 02:07 30.42307 -100.91980 34774 ft 532 kts 108°
2026-04-26 02:08 30.40113 -100.83783 34795 ft 532 kts 108°
2026-04-26 02:08 30.37921 -100.75583 34806 ft 533 kts 108°
2026-04-26 02:09 30.35723 -100.67392 34803 ft 533 kts 108°
2026-04-26 02:09 30.33521 -100.59201 34790 ft 533 kts 108°
2026-04-26 02:10 30.31314 -100.51004 34767 ft 533 kts 109°
2026-04-26 02:10 30.29095 -100.42817 34734 ft 533 kts 109°
2026-04-26 02:11 30.26870 -100.34627 34733 ft 533 kts 109°
2026-04-26 02:11 30.24642 -100.26444 34412 ft 533 kts 109°
2026-04-26 02:11 30.23528 -100.22363 34186 ft 532 kts 109°
2026-04-26 02:12 30.22413 -100.18283 33970 ft 531 kts 109°
2026-04-26 02:12 30.21301 -100.14214 33382 ft 532 kts 109°
2026-04-26 02:12 30.20175 -100.10103 32076 ft 541 kts 108°
2026-04-26 02:12 30.19037 -100.05951 30967 ft 544 kts 108°
2026-04-26 02:13 30.17891 -100.01777 29884 ft 544 kts 108°
2026-04-26 02:13 30.16726 -99.97663 28695 ft 532 kts 109°
2026-04-26 02:13 30.15513 -99.93670 27587 ft 522 kts 111°
2026-04-26 02:13 30.14270 -99.89787 26477 ft 512 kts 111°
2026-04-26 02:14 30.13003 -99.85942 25217 ft 510 kts 112°
2026-04-26 02:14 30.11736 -99.82119 24029 ft 511 kts 112°
2026-04-26 02:14 30.10466 -99.78254 22888 ft 516 kts 111°
2026-04-26 02:14 30.09219 -99.74398 22006 ft 507 kts 111°
2026-04-26 02:15 30.08019 -99.70638 21199 ft 492 kts 111°
2026-04-26 02:15 30.06851 -99.66954 20405 ft 485 kts 111°
2026-04-26 02:15 30.05704 -99.63324 19613 ft 478 kts 111°
2026-04-26 02:15 30.04571 -99.59745 18889 ft 471 kts 111°
2026-04-26 02:16 30.03447 -99.56215 18302 ft 468 kts 111°
2026-04-26 02:16 30.02329 -99.52729 17495 ft 469 kts 111°
2026-04-26 02:16 30.01193 -99.49210 16779 ft 466 kts 111°
2026-04-26 02:16 30.00062 -99.45712 16081 ft 464 kts 111°
2026-04-26 02:17 29.98942 -99.42239 15386 ft 461 kts 111°
2026-04-26 02:17 29.97825 -99.38776 14729 ft 458 kts 111°
2026-04-26 02:17 29.97094 -99.36509 14278 ft 452 kts 111°
2026-04-26 02:17 29.95671 -99.32091 13438 ft 427 kts 111°
2026-04-26 02:18 29.94656 -99.28945 12822 ft 413 kts 112°
2026-04-26 02:18 29.93990 -99.26887 12446 ft 413 kts 112°
2026-04-26 02:18 29.92992 -99.23798 11845 ft 408 kts 112°
2026-04-26 02:18 29.92010 -99.20776 11292 ft 394 kts 112°
2026-04-26 02:19 29.91034 -99.17945 11155 ft 365 kts 114°
2026-04-26 02:19 29.90086 -99.15345 11034 ft 339 kts 115°
2026-04-26 02:19 29.89176 -99.12918 10747 ft 322 kts 116°
2026-04-26 02:19 29.88291 -99.10581 10508 ft 316 kts 116°
2026-04-26 02:20 29.87423 -99.08273 10271 ft 313 kts 115°
2026-04-26 02:20 29.86565 -99.05974 10046 ft 312 kts 115°
2026-04-26 02:20 29.85718 -99.03684 9888 ft 309 kts 115°
2026-04-26 02:20 29.84878 -99.01410 9770 ft 308 kts 115°
2026-04-26 02:21 29.84041 -98.99140 9639 ft 307 kts 115°
2026-04-26 02:21 29.83208 -98.96878 9506 ft 306 kts 116°
2026-04-26 02:21 29.82328 -98.94645 9372 ft 306 kts 117°
2026-04-26 02:21 29.81407 -98.92434 8846 ft 306 kts 118°
2026-04-26 02:22 29.80476 -98.90248 8219 ft 302 kts 118°
2026-04-26 02:22 29.79557 -98.88095 7748 ft 292 kts 118°
2026-04-26 02:22 29.78704 -98.86082 7680 ft 268 kts 118°
2026-04-26 02:22 29.77918 -98.84216 7606 ft 249 kts 118°
2026-04-26 02:23 29.77180 -98.82462 7537 ft 243 kts 118°
2026-04-26 02:23 29.76428 -98.80686 7385 ft 250 kts 118°
2026-04-26 02:23 29.75667 -98.78882 7029 ft 251 kts 117°
2026-04-26 02:23 29.74906 -98.77074 6710 ft 250 kts 117°
2026-04-26 02:24 29.74150 -98.75279 6412 ft 249 kts 117°
2026-04-26 02:24 29.73389 -98.73492 6105 ft 247 kts 121°
2026-04-26 02:24 29.72386 -98.71960 5801 ft 240 kts 134°
2026-04-26 02:24 29.71285 -98.70540 5519 ft 236 kts 134°
2026-04-26 02:25 29.70198 -98.69126 5245 ft 234 kts 133°
2026-04-26 02:25 29.69122 -98.67729 4955 ft 232 kts 134°
2026-04-26 02:25 29.68051 -98.66344 4667 ft 231 kts 134°
2026-04-26 02:25 29.66988 -98.64969 4370 ft 229 kts 134°
2026-04-26 02:26 29.65933 -98.63605 4088 ft 227 kts 133°
2026-04-26 02:26 29.64895 -98.62261 3797 ft 226 kts 134°
2026-04-26 02:26 29.63847 -98.60908 3507 ft 224 kts 134°
2026-04-26 02:26 29.62815 -98.59574 3231 ft 222 kts 134°
2026-04-26 02:27 29.61793 -98.58254 2957 ft 219 kts 134°
2026-04-26 02:27 29.60825 -98.57002 2703 ft 197 kts 134°
2026-04-26 02:27 29.59957 -98.55880 2446 ft 179 kts 134°
2026-04-26 02:27 29.59168 -98.54862 2232 ft 165 kts 135°
2026-04-26 02:28 29.58487 -98.53985 2053 ft 151 kts 134°
2026-04-26 02:28 29.57796 -98.53094 1863 ft 143 kts 135°
2026-04-26 02:28 29.57142 -98.52252 1709 ft 140 kts 134°
2026-04-26 02:28 29.56622 -98.51584 1544 ft 142 kts 133°
2026-04-26 02:29 29.55977 -98.50753 1384 ft 145 kts 132°
2026-04-26 02:29 29.55310 -98.49882 1202 ft 145 kts 132°
2026-04-26 02:29 29.54650 -98.49010 1003 ft 142 kts 134°
2026-04-26 02:29 29.53990 -98.48182 821 ft 133 kts 131°
2026-04-26 02:30 29.53456 -98.47502 799 ft 81 kts 132°
2026-04-26 02:30 29.53265 -98.47282 798 ft 12 kts 169°
2026-04-26 02:30 29.53166 -98.47272 799 ft 13 kts 163°
2026-04-26 02:30 29.53072 -98.47239 797 ft 16 kts 163°
2026-04-26 02:31 29.52963 -98.47244 795 ft 13 kts 187°
2026-04-26 02:31 29.52945 -98.47241 795 ft 0 kts 168°